Elmendorf AFB, AK

8:10 PM AKDT on June 25, 2017 (GMT -0800)
Elmendorf Air Force Base

Weather History for PAED - August, 2014

Change the Weather History Date:

Saturday, August 23, 2014

  Actual Average Record
Temperature  
Mean Temperature 54 °F -  
Max Temperature 61 °F 62 °F 78 °F (2004)
Min Temperature 46 °F 48 °F 34 °F (1974)
Degree Days  
Heating Degree Days 12    
Growing Degree Days 4 (Base 50)    
Moisture  
Dew Point 51 °F    
Average Humidity 93    
Maximum Humidity 100    
Minimum Humidity 75    
Precipitation  
Precipitation 0.00 in - - ()
Sea Level Pressure  
Sea Level Pressure 30.17 in    
Wind  
Wind Speed 1 mph (NNW)    
Max Wind Speed 8 mph    
Max Gust Speed -    
Visibility 7 miles    
Events Fog    
Averages and records for this station are not official NWS values.
T = Trace of Precipitation, MM = Missing Value Source: NWS Daily Summary

Daily Weather History Graph

Daily Weather History Graph

Search for Another Location

Airport or City:

Trip Planner

Search our weather history database for the weather conditions in past years. The results will help you decide how hot, cold, wet, or windy it might be!

Date:

Astronomy

Aug. 23, 2014 Rise Set
Actual Time 6:28 AM AKDT 9:33 PM AKDT
Civil Twilight 5:37 AM AKDT 10:23 PM AKDT
Nautical Twilight 4:26 AM AKDT 11:33 PM AKDT
Astronomical Twilight 2:34 AM AKDT 1:29 AM AKDT
Moon 4:44 AM AKDT (8/23) 8:24 PM AKDT (8/23)
Length of Visible Light 16h 45m
Length of Day
15h 04m
Waning Crescent, 3% of the Moon is Illuminated
Aug 23
Waning Crescent
Aug 25
New
Sep 2
First Quarter
Sep 8
Full
Sep 15
Last Quarter

Hourly Weather History & Observations

Time (AKDT) Temp. Dew Point Humidity Pressure Visibility Wind Dir Wind Speed Gust Speed Precip Events Conditions
12:58 AM 52.5 °F 50.0 °F 91% 30.22 in 10.0 mi Calm Calm - N/A   Clear
1:58 AM 51.6 °F 48.4 °F 89% 30.23 in 10.0 mi Calm Calm - N/A   Clear
2:28 AM 51.8 °F 48.2 °F 88% 30.24 in 10.0 mi Calm Calm - N/A   Scattered Clouds
2:58 AM 50.7 °F 47.7 °F 89% 30.23 in 10.0 mi Calm Calm - N/A   Scattered Clouds
3:58 AM 49.1 °F 46.6 °F 91% 30.23 in 10.0 mi Calm Calm - N/A   Partly Cloudy
4:18 AM 50.0 °F 46.4 °F 87% 30.24 in 10.0 mi Calm Calm - N/A   Scattered Clouds
4:38 AM 48.2 °F 46.4 °F 93% 30.23 in 10.0 mi Calm Calm - N/A   Scattered Clouds
4:58 AM 48.0 °F 46.2 °F 93% 30.21 in 10.0 mi Calm Calm - N/A   Scattered Clouds
5:48 AM 48.2 °F 48.2 °F 100% 30.22 in 10.0 mi Calm Calm - N/A   Scattered Clouds
5:58 AM 48.4 °F 48.2 °F 99% 30.21 in 10.0 mi Calm Calm - N/A   Scattered Clouds
6:58 AM 47.3 °F 46.6 °F 97% 30.21 in 0.5 mi Calm Calm - N/A Fog Fog
7:08 AM 46.4 °F 46.4 °F 100% 30.22 in 5.0 mi Calm Calm - N/A   Clear
7:18 AM - - N/A% 30.21 in 6.0 mi Calm Calm - N/A   Scattered Clouds
7:23 AM 46.4 °F 46.4 °F 100% 30.21 in 6.0 mi Calm Calm - N/A   Scattered Clouds
7:48 AM 48.2 °F 48.2 °F 100% 30.22 in 10.0 mi Calm Calm - N/A   Mostly Cloudy
7:58 AM 49.5 °F 48.2 °F 95% 30.21 in 10.0 mi Calm Calm - N/A   Mostly Cloudy
8:08 AM 50.0 °F 50.0 °F 100% 30.22 in 5.0 mi Calm Calm - N/A   Mostly Cloudy
8:28 AM 51.8 °F 51.8 °F 100% 30.21 in 1.2 mi Calm Calm - N/A   Overcast
8:39 AM 51.8 °F 51.8 °F 100% 30.21 in 0.2 mi Calm Calm - N/A Fog Fog
8:53 AM 51.8 °F 51.8 °F 100% 30.20 in 0.5 mi Calm Calm - N/A Fog Fog
8:58 AM 51.4 °F 51.4 °F 100% 30.19 in 0.5 mi Calm Calm - N/A Fog Fog
9:13 AM 51.8 °F 51.8 °F 100% 30.20 in 0.5 mi North 1.2 mph - N/A Fog Fog
9:18 AM 51.8 °F 51.8 °F 100% 30.19 in 0.8 mi North 4.6 mph - N/A   Mist
9:38 AM 51.8 °F 51.8 °F 100% 30.19 in 0.2 mi NNE 1.2 mph - N/A Fog Fog
9:43 AM 51.8 °F 51.8 °F 100% 30.19 in 0.5 mi North 1.2 mph - N/A Fog Fog
9:53 AM 51.8 °F 51.8 °F 100% 30.19 in 0.5 mi NNW 4.6 mph - N/A Fog Fog
9:58 AM 52.0 °F 52.0 °F 100% 30.18 in 0.5 mi North 5.8 mph - N/A Fog Fog
10:18 AM 51.8 °F 51.8 °F 100% 30.19 in 0.8 mi NNW 2.3 mph - N/A   Mist
10:43 AM 51.8 °F 51.8 °F 100% 30.18 in 6.0 mi NE 3.5 mph - N/A   Overcast
10:58 AM 52.0 °F 52.0 °F 100% 30.17 in 5.0 mi Calm Calm - N/A   Mostly Cloudy
11:18 AM 53.6 °F 51.8 °F 94% 30.18 in 10.0 mi NW 5.8 mph - N/A   Overcast
11:28 AM 55.4 °F 53.6 °F 94% 30.18 in 10.0 mi NW 5.8 mph - N/A   Overcast
11:38 AM 55.4 °F 51.8 °F 88% 30.17 in 10.0 mi NNE 5.8 mph - N/A   Overcast
11:58 AM 57.0 °F 52.3 °F 84% 30.16 in 10.0 mi NW 4.6 mph - N/A   Overcast
12:08 PM 57.2 °F 51.8 °F 82% 30.17 in 10.0 mi NNW 3.5 mph - N/A   Overcast
12:38 PM 57.2 °F 51.8 °F 82% 30.16 in 10.0 mi North 4.6 mph - N/A   Mostly Cloudy
12:58 PM 59.4 °F 52.9 °F 79% 30.15 in 10.0 mi NNW 4.6 mph - N/A   Mostly Cloudy
1:58 PM 60.3 °F 52.5 °F 76% 30.12 in 10.0 mi North 4.6 mph - N/A   Mostly Cloudy
2:58 PM 61.5 °F 53.4 °F 75% 30.11 in 10.0 mi WSW 5.8 mph - N/A   Mostly Cloudy
3:58 PM 61.3 °F 54.1 °F 77% 30.10 in 10.0 mi WSW 5.8 mph - N/A   Mostly Cloudy
4:58 PM 59.4 °F 53.6 °F 81% 30.09 in 10.0 mi West 8.1 mph - N/A   Mostly Cloudy
5:58 PM 58.1 °F 54.9 °F 89% 30.08 in 10.0 mi WSW 8.1 mph - N/A   Scattered Clouds
6:58 PM 57.2 °F 55.4 °F 94% 30.06 in 10.0 mi West 5.8 mph - N/A   Mostly Cloudy
7:58 PM 57.0 °F 55.2 °F 94% 30.05 in 10.0 mi WSW 4.6 mph - N/A   Mostly Cloudy
8:58 PM 56.7 °F 54.0 °F 91% 30.03 in 10.0 mi Calm Calm - N/A   Mostly Cloudy
9:58 PM 56.1 °F 53.8 °F 92% 30.02 in 10.0 mi Calm Calm - N/A   Overcast
10:58 PM 56.1 °F 52.7 °F 88% 30.00 in 10.0 mi Calm Calm - N/A   Overcast
11:58 PM 55.9 °F 53.1 °F 90% 29.99 in 10.0 mi Calm Calm - N/A   Mostly Cloudy